• In Hungary
  • List of Countries
  • For 7 days
  • Water Temperature
  • Satellite Maps
  • Weather Map
  • News
  • Weather Widgets
  • user-avatar
    Login

    Hourly Weather Sozopol

    Today, 24 September, Monday

    Time Temperature Precipitation Wind Pressure Humidity
    00:00 +20°C° 0 mm 2 mps 760 mmHg 86%
    01:00 +20°C° 0 mm 2 mps 760 mmHg 86%
    02:00 +21°C° 0 mm 1 mps 759 mmHg 84%
    03:00 +20°C° 0 mm 2 mps 758 mmHg 83%
    04:00 +20°C° 0 mm 2 mps 758 mmHg 81%
    05:00 +20°C° 0 mm 2 mps 758 mmHg 80%
    06:00 +21°C° 0 mm 2 mps 757 mmHg 72%
    07:00 +24°C° 0 mm 2 mps 757 mmHg 63%
    08:00 +25°C° 0 mm 2 mps 756 mmHg 55%
    09:00 +27°C° 0 mm 3 mps 756 mmHg 47%
    10:00 +30°C° 0 mm 4 mps 756 mmHg 38%
    11:00 +33°C° 0 mm 4 mps 756 mmHg 29%
    12:00 +34°C° 0 mm 4 mps 755 mmHg 27%
    13:00 +35°C° 0 mm 5 mps 755 mmHg 25%
    14:00 +36°C° 0 mm 5 mps 754 mmHg 24%
    15:00 +35°C° 0 mm 4 mps 754 mmHg 26%
    16:00 +34°C° 0 mm 4 mps 754 mmHg 28%
    17:00 +34°C° 0 mm 4 mps 754 mmHg 30%
    18:00 +30°C° 0 mm 6 mps 755 mmHg 35%
    19:00 +27°C° 0 mm 7 mps 755 mmHg 39%
    20:00 +23°C° 0 mm 9 mps 756 mmHg 44%
    21:00 +21°C° 0 mm 10 mps 757 mmHg 47%
    22:00 +19°C° 0 mm 10 mps 759 mmHg 50%
    23:00 +18°C° 0 mm 11 mps 760 mmHg 53%

    Tomorrow, 25 September, Tuesday

    Time Temperature Precipitation Wind Pressure Humidity
    00:00 +16°C° 0.1 mm 10 mps 760 mmHg 57%
    01:00 +14°C° 0.1 mm 10 mps 761 mmHg 61%
    02:00 +13°C° 0.1 mm 9 mps 762 mmHg 65%
    03:00 +13°C° 0.1 mm 8 mps 762 mmHg 65%
    04:00 +13°C° 0.1 mm 8 mps 763 mmHg 65%
    05:00 +12°C° 0.1 mm 7 mps 763 mmHg 65%
    06:00 +13°C° 0.2 mm 6 mps 764 mmHg 64%
    07:00 +13°C° 0.2 mm 6 mps 764 mmHg 63%
    08:00 +13°C° 0.2 mm 6 mps 765 mmHg 62%
    09:00 +14°C° 0 mm 6 mps 765 mmHg 57%
    10:00 +15°C° 0 mm 5 mps 765 mmHg 51%
    11:00 +16°C° 0 mm 5 mps 765 mmHg 46%
    12:00 +19°C° 0 mm 5 mps 765 mmHg 40%
    13:00 +20°C° 0 mm 5 mps 765 mmHg 34%
    14:00 +21°C° 0 mm 5 mps 765 mmHg 28%
    15:00 +20°C° 0 mm 5 mps 765 mmHg 29%
    16:00 +20°C° 0 mm 5 mps 765 mmHg 30%
    17:00 +19°C° 0 mm 5 mps 766 mmHg 31%
    18:00 +16°C° 0 mm 5 mps 766 mmHg 40%
    19:00 +15°C° 0 mm 6 mps 767 mmHg 49%
    20:00 +13°C° 0 mm 6 mps 767 mmHg 58%
    21:00 +13°C° 0 mm 6 mps 768 mmHg 56%
    22:00 +11°C° 0 mm 6 mps 768 mmHg 54%
    23:00 +11°C° 0 mm 6 mps 768 mmHg 52%

    Day after tomorrow, 26 September, Wednesday

    Time Temperature Precipitation Wind Pressure Humidity
    00:00 +11°C° 0 mm 7 mps 768 mmHg 50%
    01:00 +11°C° 0 mm 7 mps 769 mmHg 48%
    02:00 +11°C° 0 mm 8 mps 769 mmHg 46%
    03:00 +10°C° 0 mm 8 mps 769 mmHg 48%
    04:00 +10°C° 0 mm 8 mps 769 mmHg 49%
    05:00 +9°C° 0 mm 8 mps 769 mmHg 51%
    06:00 +10°C° 0 mm 9 mps 769 mmHg 49%
    07:00 +10°C° 0 mm 9 mps 770 mmHg 48%
    08:00 +11°C° 0 mm 9 mps 770 mmHg 46%
    09:00 +12°C° 0 mm 10 mps 770 mmHg 42%
    10:00 +14°C° 0 mm 10 mps 770 mmHg 37%
    11:00 +16°C° 0 mm 10 mps 770 mmHg 33%
    12:00 +16°C° 0 mm 10 mps 770 mmHg 32%
    13:00 +17°C° 0 mm 10 mps 770 mmHg 32%
    14:00 +17°C° 0 mm 10 mps 769 mmHg 31%
    15:00 +17°C° 0 mm 10 mps 769 mmHg 33%
    16:00 +16°C° 0 mm 10 mps 769 mmHg 35%
    17:00 +14°C° 0 mm 10 mps 769 mmHg 37%
    18:00 +13°C° 0 mm 9 mps 769 mmHg 40%
    19:00 +12°C° 0 mm 9 mps 770 mmHg 43%
    20:00 +11°C° 0 mm 9 mps 770 mmHg 46%
    21:00 +11°C° 0 mm 9 mps 770 mmHg 47%
    22:00 +10°C° 0 mm 9 mps 770 mmHg 48%
    23:00 +10°C° 0 mm 9 mps 770 mmHg 49%

    27 September, Thursday

    Time Temperature Precipitation Wind Pressure Humidity
    00:00 +8°C° 0 mm 9 mps 770 mmHg 49%
    01:00 +9°C° 0 mm 8 mps 770 mmHg 49%
    02:00 +9°C° 0 mm 8 mps 770 mmHg 49%
    03:00 +7°C° 0 mm 8 mps 770 mmHg 50%
    04:00 +7°C° 0 mm 8 mps 769 mmHg 50%
    05:00 +7°C° 0 mm 8 mps 769 mmHg 50%
    06:00 +9°C° 0 mm 8 mps 769 mmHg 48%
    07:00 +9°C° 0 mm 8 mps 769 mmHg 46%
    08:00 +10°C° 0 mm 8 mps 769 mmHg 43%
    09:00 +12°C° 0 mm 8 mps 769 mmHg 42%
    10:00 +13°C° 0 mm 8 mps 769 mmHg 41%
    11:00 +16°C° 0 mm 8 mps 769 mmHg 39%
    12:00 +16°C° 0 mm 8 mps 768 mmHg 40%
    13:00 +17°C° 0 mm 7 mps 768 mmHg 40%
    14:00 +18°C° 0 mm 7 mps 767 mmHg 41%
    15:00 +17°C° 0 mm 7 mps 767 mmHg 43%
    16:00 +17°C° 0 mm 7 mps 767 mmHg 45%
    17:00 +16°C° 0 mm 7 mps 766 mmHg 46%
    18:00 +15°C° 0 mm 6 mps 766 mmHg 52%
    19:00 +14°C° 0 mm 6 mps 767 mmHg 57%
    20:00 +13°C° 0 mm 6 mps 767 mmHg 62%
    21:00 +12°C° 0 mm 5 mps 766 mmHg 63%
    22:00 +12°C° 0 mm 5 mps 766 mmHg 64%
    23:00 +12°C° 0 mm 5 mps 766 mmHg 65%

    28 September, Friday

    Time Temperature Precipitation Wind Pressure Humidity
    00:00 +12°C° 0 mm 5 mps 766 mmHg 65%
    01:00 +10°C° 0 mm 5 mps 765 mmHg 64%
    02:00 +10°C° 0 mm 5 mps 765 mmHg 63%
    03:00 +10°C° 0 mm 5 mps 765 mmHg 62%
    04:00 +10°C° 0 mm 5 mps 765 mmHg 61%
    05:00 +10°C° 0 mm 5 mps 764 mmHg 60%
    06:00 +12°C° 0 mm 5 mps 764 mmHg 56%
    07:00 +13°C° 0 mm 5 mps 764 mmHg 52%
    08:00 +15°C° 0 mm 5 mps 764 mmHg 48%
    09:00 +17°C° 0 mm 6 mps 764 mmHg 46%
    10:00 +20°C° 0 mm 6 mps 764 mmHg 44%
    11:00 +21°C° 0 mm 6 mps 763 mmHg 42%
    12:00 +22°C° 0 mm 6 mps 763 mmHg 42%
    13:00 +22°C° 0 mm 6 mps 762 mmHg 42%
    14:00 +23°C° 0 mm 6 mps 762 mmHg 41%
    15:00 +22°C° 0 mm 5 mps 761 mmHg 45%
    16:00 +21°C° 0 mm 5 mps 761 mmHg 49%
    17:00 +20°C° 0 mm 5 mps 761 mmHg 53%
    18:00 +19°C° 0 mm 4 mps 761 mmHg 61%
    19:00 +17°C° 0 mm 4 mps 761 mmHg 69%
    20:00 +14°C° 0 mm 3 mps 761 mmHg 76%
    21:00 +15°C° 0 mm 2 mps 760 mmHg 79%
    22:00 +15°C° 0 mm 2 mps 760 mmHg 81%
    23:00 +14°C° 0 mm 1 mps 760 mmHg 83%

    29 September, Saturday

    Time Temperature Precipitation Wind Pressure Humidity
    00:00 +14°C° 0 mm 1 mps 760 mmHg 84%
    01:00 +14°C° 0 mm 1 mps 759 mmHg 85%
    02:00 +14°C° 0 mm 1 mps 759 mmHg 86%
    03:00 +13°C° 0 mm 1 mps 759 mmHg 87%
    04:00 +13°C° 0 mm 1 mps 759 mmHg 88%
    05:00 +13°C° 0 mm 1 mps 758 mmHg 88%
    06:00 +15°C° 0 mm 1 mps 758 mmHg 82%
    07:00 +16°C° 0 mm 1 mps 758 mmHg 75%
    08:00 +19°C° 0 mm 1 mps 758 mmHg 69%
    09:00 +21°C° 0 mm 1 mps 758 mmHg 61%
    10:00 +22°C° 0 mm 1 mps 758 mmHg 53%
    11:00 +24°C° 0 mm 1 mps 758 mmHg 46%
    12:00 +25°C° 0 mm 1 mps 757 mmHg 43%
    13:00 +26°C° 0 mm 1 mps 757 mmHg 40%
    14:00 +27°C° 0 mm 2 mps 756 mmHg 37%
    15:00 +27°C° 0 mm 2 mps 756 mmHg 40%
    16:00 +26°C° 0 mm 2 mps 756 mmHg 43%
    17:00 +25°C° 0 mm 3 mps 756 mmHg 46%
    18:00 +22°C° 0.1 mm 3 mps 756 mmHg 56%
    19:00 +20°C° 0.1 mm 3 mps 757 mmHg 65%
    20:00 +18°C° 0.1 mm 2 mps 757 mmHg 74%
    21:00 +18°C° 0.3 mm 2 mps 757 mmHg 78%
    22:00 +17°C° 0.3 mm 2 mps 757 mmHg 81%
    23:00 +18°C° 0.3 mm 1 mps 757 mmHg 85%
    Show more